Regional Weather Roundup
Issued by NWS

Home | Current Version | Previous Version | Text Only | Print | Product List | Glossary On
Versions: 1 2 3 4 5 6 7 8 9 10 11 12 13 14 15 16 17 18 19 20 21 22 23 24 25 26 27 28 29 30 31 32 33 34 35 36 37 38 39 40 41 42 43 44 45 46 47 48 49 50
000
ASHW40 PHFO 061810
RWRHI

WEATHER ROUNDUP FOR HAWAII
NATIONAL WEATHER SERVICE HONOLULU HI
800 AM HST MON JUL 06 2015

THIS IS AN AUTOMATED REPORT THAT HAS NOT BEEN QUALITY CONTROLLED.

NOTE..."FAIR" INDICATES FEW OR NO CLOUDS BELOW 12,000 FEET WITH NO
SIGNIFICANT WEATHER AND/OR OBSTRUCTIONS TO VISIBILITY.

* - THESE SITES REPORT LIMITED FIELDS

HIZ001>004-061900-
KAUAI-NIIHAU-

CITY           SKY/WX    TMP DP  RH WIND       PRES   REMARKS
LIHUE APT      CLOUDY    81  70  69 E12       30.02R
PORT ALLEN*    NOT AVBL
POIPU*           N/A     81 N/A N/A NE8G17      N/A
PRINCEVILLE*     N/A     75 N/A N/A MISG        N/A
KOKOLE POINT*  NOT AVBL
MOLOAA DAIRY*  NOT AVBL
WAIMEA HTS*    NOT AVBL
PUU OPAE*      NOT AVBL
PUU LUA*       NOT AVBL
MAKAHA RIDGE*  NOT AVBL
$$

HIZ005>011-061900-
OAHU-

CITY           SKY/WX    TMP DP  RH WIND       PRES   REMARKS
HONOLULU       MOSUNNY   82  67  60 NE14      29.98R
KALAELOA       MOSUNNY   80  67  64 VRB6      29.99S
KANEOHE MCB    PTSUNNY   80  69  69 NE12      29.97R
WHEELER FIELD  FAIR      76  65  69 N8        29.99R
BELLOWS*       NOT AVBL
KAHUKU*        NOT AVBL
WHEELER*       NOT AVBL
WAIANAE HARBOR NOT AVBL
DILLINGHAM*      N/A     81  68  65 MISG        N/A
KAHUKU TRN*      N/A     73  64  73 E12G18      N/A
KAWAILOA*        N/A     72  66  83 NE6G15      N/A
KII*             N/A     81  72  74 NE13G18     N/A
MAKUA RANGE*     N/A     81  64  57 E12G18      N/A
OAHU FOREST NW NOT AVBL
SCHOFIELD BRK*   N/A     66  57  72 MISG        N/A
SCHOFIELD S*   NOT AVBL
WAIANAE VLY*   NOT AVBL
KUAOKALA*      NOT AVBL
HONOULIUULI*   NOT AVBL
MOKUOLOE IS*   NOT AVBL
PALEHUA*       NOT AVBL
WAIAWA PHB*    NOT AVBL
$$

HIZ012>013-061900-
MOLOKAI-

CITY           SKY/WX    TMP DP  RH WIND       PRES   REMARKS
MOLOKAI AIRPT  MOSUNNY   79  68  69 NE10G18   30.00R
KALAUPAPA      NOT AVBL
MAKAPULAPAI*   NOT AVBL
MOLOKAI 1*     NOT AVBL
PUU ALII*      NOT AVBL
$$

HIZ016-061900-
KAHOOLAWE-

CITY           SKY/WX    TMP DP  RH WIND       PRES   REMARKS
KAHOOLAWE*     NOT AVBL
HAKIOAWA*      NOT AVBL
HONOKANAIA*      N/A     79  67  66 NE6G16    29.99R
KANELOA*         N/A     73  70  88 NE5G16    30.04R
KEALIALALO*    NOT AVBL
LUA MAKIKA*    NOT AVBL
$$

HIZ014>015-061900-
LANAI-

CITY           SKY/WX    TMP DP  RH WIND       PRES   REMARKS
LANAI CITY     FAIR      75  66  73 NE12      30.03R
LANAI 1*       NOT AVBL
$$

HIZ017>028-061900-
MAUI-

CITY           SKY/WX    TMP DP  RH WIND       PRES   REMARKS
KAHULUI        MOSUNNY   81  68  64 NE13      29.99R
KAPALUA-W MAUI PTSUNNY   79  68  69 NE9       29.99
HANA AIRPORT   PTSUNNY   77  73  88 E6        30.03S
HANA*          NOT AVBL
HALEAKALA SUMM   N/A     50  28  43 NE18        N/A
MAALAEA BAY*   NOT AVBL
HALEAKALA*     NOT AVBL
KAUPO GAP*     NOT AVBL
KULA 1*          N/A     59  41  51 E2          N/A
$$

HIZ023>026-061900-
BIG ISLAND OF HAWAII COAST AND LOWER SLOPES-

CITY           SKY/WX    TMP DP  RH WIND       PRES   REMARKS
KAILUA KONA    MOSUNNY   82  69  64 S12       29.93S
HILO           CLOUDY    75  70  84 NW10      29.99R
HONOKAA*       NOT AVBL
KAWAIHAE MWT*  NOT AVBL
KAWAIHAE*        N/A     81 N/A N/A W3          N/A
SOUTH POINT*   NOT AVBL
UPOLU AIRPORT* NOT AVBL
KAMUELA*       CLOUDY    68  64  88 E16       30.07S
HAKALAU*         N/A     60  56  85 NE5         N/A
KALOKO-HONOKO* NOT AVBL
PALI 2*          N/A    N/A N/A N/A N18G28      N/A
KEALAKOMO*       N/A    N/A N/A N/A NE15G22     N/A
KAUPULEHU*     NOT AVBL
KAPAPALA*        N/A     73  65  75 S3G9        N/A
LOWER KAHUKU*  NOT AVBL
PUHE CS*       NOT AVBL
PUHO CS*       NOT AVBL
PTA KEAMUKU*     N/A     70  57  64 CALM        N/A
WAIKOLOA*      NOT AVBL
$$

HIZ027>028-061900-
BIG ISLAND OF HAWAII INTERIOR AND SUMMMITS-

CITY           SKY/WX    TMP DP  RH WIND       PRES   REMARKS
BRADSHAW FIELD SUNNY     61  50  67 SE8G15    30.28R
MK VISITOR CEN   N/A      0   0 100 MISG        N/A
MAUNA KEA*       N/A     43   0  16 E17         N/A
MAUNA LOA*       N/A     52  -8   8 MISG        N/A
MAUNA LOA 1*   NOT AVBL
PTA KIPUKA*      N/A     64  54  68 W3          N/A
PTA RANGE 17*    N/A     48  36  61 E7G13       N/A
PTA WEST*        N/A    N/A N/A N/A SW5G12      N/A
NENE CABIN*    NOT AVBL
AHUMOA*        NOT AVBL
PTA PORTABLE*  NOT AVBL
PUU MALI*        N/A     63  45  51 E15G22      N/A
$$

HIC003-061900-
NORTHWEST ISLANDS-

CITY           SKY/WX    TMP DP  RH WIND       PRES   REMARKS
MIDWAY ISLAND  CLOUDY    75  66  73 NE9       30.08R
MIDWAY NOS*    NOT AVBL
FRENCH FRIGATE NOT AVBL
$$

PHZ110>124-180-061900-
BUOY REPORTS

STATION/POSITION TIME  TEMP    WIND        PRES    WAVE   SWELL
                       AIR SEA DIR/SP/G            HT/PER HT/DIR
                 (UTC) (F)     (DEG/KT/KT) (MB)    (FT/S) (FT/D)
BUOY 51001       NOT AVBL
BUOY 51101       1800   80 79  100/ 10/ 12 1016.6R   5/16   3/180
BUOY 51100       NOT AVBL
BUOY 51002       1800   80 81   80/ 16/ 17 1013.3R   6/19   3/140
BUOY 51003       1700   80 82   60/ 10/ 12 1014.0R   6/16   5
BUOY 51004       1748   79 80   40/ 16/ 19 1012.8R   7/16   5/220
BARBERS PT BUOY  NOT AVBL
WAIMEA BAY BUOY  1800      79                N/A     3/11   2/310
KAILUA BAY BUOY  1800      80                N/A     4/ 9   2/150
LANAI BUOY       NOT AVBL
BARBERS PT 2     1800      80                N/A     4/17   3/190
PAUWELA MAUI     1800      79                N/A     4/ 9   2/ 20
HILO             1800      79                N/A     4/10   2/110
KANEOHE BAY BUOY 1800      79                N/A     3/ 6
HANALEI KAUAI    1800      80                N/A     4/11   2/ 10
KAHULUI HARBOR   1800   78 81   10/  8/ 10 1015.3R
HONOLULU HARBOR  1700   78 80  350/  4/  7 1015.2R
KILO NALU        NOT AVBL
HILO HARBOR      1800   74 78  300/ 11/ 13 1015.3F
MOKUOLOE         1800   79 82   40/ 11/ 12 1015.6S
NAWILIWILI       1800   79 82   70/ 12/ 14 1015.9R
WHOTS BUOY       NOT AVBL
BUOY 51028       NOT AVBL
$$

......................KEY........................................
  SKY/WX - SKY CONDITIONS/PRESENT WEATHER
  TMP    - TEMPERATURE IN FAHRENHEIT
  DWPT   - DEWPOINT IN FAHRENHEIT
  RH     - RELATIVE HUMIDITY IN PERCENT
  WIND   - DIRECTION AND SPEED /MPH FOR ISLANDS...KTS FOR BUOYS/
  PRES   - MEAN SEA LEVEL PRESSURE IN INCHES OF HG
  VSB    - VISIBILITY IN MILES
  HX     - HEAT INDEX
  WCI    - WIND CHILL INDEX
  VRB    - VARIABLE WIND DIRECTION
  N/A    - NOT AVAILABLE


USA.gov is the U.S. government's official web portal to all federal, state and local government web resources and services.